Location: Moscow
(55.7500°N, 37.5830°E)
Time: 09:32:03
(UTC+03:00)

Vanguard 1 Rocket - Pass Details

Date: 01 December 2021
Orbit: 651 x 4224 km, 34.3° (Epoch: 23 January)

Event Time Altitude Azimuth Distance (km) Brightness Sun altitude
Exits shadow 03:20:26 23° 170° (S) 4,194 10.5 -42.3°
Maximum altitude 03:24:58 26° 146° (SSE) 4,448 10.8 -41.8°
Drops below altitude 10° 03:40:16 10° 101° (E) 6,910 12.4 -39.8°
Sets 03:47:46 0° 92° (E) 8,294 13.1 -38.8°
